Theta_e
338 335 334 327 325 321 316 313 299 303 301 297 299 301 299 304 305 305 303 306 304 312 318 316 311 310 316 319 324 325 327 319 323 318 316 337 348 350 350 353 354 353 351 351 352 354 356 355 354 355 355 355 355 355 355 355 355 356 355 355 355 354 354 354 353 353 352 352 351 351 350 350 351 351 351 350 350 351 350 349 350 350 348 346 346 348 348 347 346 346 347 347 347 347 348 347 346
330 331 328 326 322 316 309 311 301 301 300 297 299 302 302 305 303 302 303 304 306 308 310 310 311 312 315 325 329 331 328 328 334 336 340 345 350 351 354 354 354 350 351 351 351 351 353 355 354 354 354 354 355 355 355 355 355 355 355 355 354 354 354 353 353 352 351 351 350 350 350 350 350 350 350 349 350 352 351 351 350 346 347 347 348 347 348 347 347 348 348 347 348 348 348 348 348
326 325 321 322 319 316 312 306 297 299 297 295 300 301 304 301 301 303 304 305 307 308 310 310 311 314 318 327 326 327 325 336 338 339 340 348 343 348 354 355 354 352 352 352 350 350 352 353 353 354 354 354 354 354 354 354 354 354 354 354 354 353 353 352 352 351 351 351 350 350 350 350 350 349 350 351 352 352 352 351 348 348 347 347 347 349 348 349 349 349 349 348 348 348 348 347 346
328 326 319 316 308 311 304 302 299 298 296 298 298 301 302 302 302 303 305 307 308 309 309 309 310 334 324 323 328 333 328 333 339 339 338 342 346 350 353 354 354 351 352 352 350 349 351 353 353 353 354 353 353 353 353 353 354 353 353 353 353 353 352 353 352 351 351 350 350 350 350 351 350 350 352 353 353 353 352 350 350 347 347 348 348 349 349 350 350 350 349 349 348 348 347 346 346
322 321 324 316 311 303 304 302 300 300 296 299 298 301 303 303 303 304 306 308 309 310 309 310 314 327 335 331 334 326 332 339 338 341 341 346 352 352 353 353 352 350 350 350 349 350 351 352 353 353 352 353 353 353 352 353 353 352 352 352 352 352 352 352 353 351 351 351 351 351 351 351 350 350 352 351 351 352 351 350 348 348 349 351 351 351 351 350 349 348 349 348 348 347 346 346 346
321 320 319 318 309 313 305 299 297 297 301 302 299 302 302 304 304 305 307 309 310 311 310 313 316 326 327 334 336 334 339 331 340 340 343 345 352 354 353 354 351 348 349 350 350 350 351 353 352 352 351 352 352 352 352 352 352 352 351 352 352 352 352 352 352 352 352 352 351 351 351 350 350 351 351 351 351 351 351 351 350 350 350 349 350 351 350 349 349 348 348 348 348 346 346 345 346
315 316 313 312 309 308 300 299 298 300 302 303 301 302 304 305 305 306 307 308 310 310 318 319 322 326 324 335 339 341 344 343 341 341 346 349 353 354 354 353 351 348 350 350 350 350 350 353 352 351 351 352 352 352 351 352 352 351 352 352 352 352 352 353 353 353 352 352 351 351 350 350 350 351 350 350 350 350 350 350 350 350 350 350 349 349 350 349 348 348 347 347 347 346 346 346 346
322 313 309 304 302 302 299 299 299 301 302 303 304 303 304 305 306 307 308 308 308 309 322 322 315 320 326 336 328 340 344 345 345 346 348 351 354 354 354 352 350 349 350 351 351 350 353 352 351 351 351 352 351 351 351 351 351 352 351 352 352 352 353 352 353 352 352 351 351 349 349 349 350 350 350 350 350 349 349 348 348 349 349 349 349 349 349 349 348 347 346 346 345 345 345 346 346
316 313 313 307 301 302 299 299 300 304 302 304 304 306 310 307 308 309 310 312 311 312 312 311 310 313 326 330 333 339 343 346 347 348 350 352 352 354 353 351 348 348 349 349 350 351 350 352 351 351 351 351 351 351 351 352 352 352 352 352 352 352 352 352 352 351 351 349 349 349 348 349 349 349 350 350 350 348 348 348 347 348 349 349 349 348 348 348 347 346 345 345 346 346 346 346 346
310 311 302 302 303 298 298 299 299 301 301 303 302 304 306 307 308 311 311 312 315 315 314 313 314 315 329 329 332 339 342 348 347 346 351 353 354 355 354 353 351 350 349 349 350 348 349 352 350 351 350 351 351 351 351 351 351 351 351 352 352 352 352 351 351 351 350 349 348 348 348 348 349 349 350 349 349 348 348 348 347 348 349 349 348 348 347 346 346 346 345 345 345 346 345 346 346
305 308 311 301 298 296 297 298 300 301 301 303 304 306 307 308 309 311 314 319 321 313 313 312 310 317 322 332 334 343 347 347 346 346 351 353 354 354 353 354 353 352 349 350 351 349 349 351 353 351 351 350 350 351 351 351 351 351 351 352 352 352 352 352 351 352 351 350 348 348 349 349 349 350 350 349 349 348 347 347 347 348 348 348 348 347 346 346 346 346 346 344 345 345 345 346 346
305 303 304 297 298 298 298 298 299 301 302 303 303 306 308 307 309 309 314 317 320 316 310 314 316 319 321 330 335 342 346 346 347 349 352 354 352 353 353 352 353 351 352 351 350 349 347 350 351 352 351 350 351 351 351 351 351 351 351 352 352 352 352 352 351 351 351 350 349 351 351 350 349 350 350 349 348 347 347 348 347 347 347 347 347 346 346 345 345 344 344 344 344 344 345 346 346
306 305 302 298 299 299 300 298 299 299 300 302 303 305 308 307 306 309 316 319 321 309 310 316 333 326 324 324 338 342 342 346 347 350 352 351 351 353 354 352 352 350 350 350 350 348 348 348 348 350 350 351 350 350 351 351 351 351 351 351 351 351 351 351 351 351 350 349 351 351 350 350 349 349 349 349 348 348 348 348 347 347 347 347 346 345 345 345 344 344 344 344 344 345 345 346 345
305 306 303 298 303 299 298 299 300 298 300 303 305 306 308 306 307 309 319 315 322 321 325 327 326 331 331 334 335 336 342 345 347 350 350 351 353 353 353 352 351 349 350 349 348 348 348 346 350 349 351 351 353 353 351 351 351 351 351 351 351 350 351 351 351 350 350 351 350 350 350 350 349 349 349 349 348 348 348 348 347 347 347 346 345 345 344 344 344 343 342 343 343 344 344 345 345
305 308 303 300 299 300 300 297 299 298 300 304 305 306 307 308 308 309 311 314 322 333 336 333 335 329 325 325 330 335 340 346 348 349 350 352 352 352 351 350 350 349 348 347 347 346 347 348 349 349 349 349 351 349 349 354 351 351 351 351 350 350 350 350 350 349 350 350 349 349 349 349 349 349 349 348 348 347 347 348 347 347 346 346 345 345 344 344 343 342 341 341 342 343 345 345 344
309 306 303 299 297 297 300 299 300 298 300 304 306 307 306 308 310 308 311 323 327 336 336 329 337 329 331 329 335 340 344 346 348 349 350 351 351 352 350 349 348 347 347 347 347 346 347 346 347 347 347 349 350 350 350 354 353 351 351 350 350 350 349 349 348 348 348 348 348 348 348 350 349 349 348 348 348 346 347 345 346 347 346 345 344 344 344 343 341 341 341 340 341 342 343 344 344
309 307 300 299 296 298 300 299 300 297 302 305 307 306 303 305 310 310 312 327 325 323 330 335 332 338 335 336 341 343 345 348 348 348 349 348 347 346 347 347 347 347 346 347 348 347 347 347 346 346 348 351 353 352 353 355 353 351 351 350 349 349 349 348 348 348 348 347 348 348 346 351 352 352 350 348 348 350 346 346 346 345 345 344 343 343 343 341 340 341 341 341 341 342 343 343 344
307 301 300 297 299 298 302 299 301 303 301 304 305 306 305 303 307 308 311 317 319 327 330 335 338 339 340 342 343 344 345 345 346 344 344 345 346 344 344 345 346 344 345 345 347 347 346 347 346 347 349 353 352 350 351 352 352 351 351 351 350 352 350 349 351 351 348 349 347 350 348 348 349 349 350 348 350 349 348 345 345 344 344 343 343 342 341 340 341 341 340 340 340 341 341 342 344
303 301 300 298 301 302 303 303 303 302 303 304 305 306 305 305 306 308 306 309 311 315 328 330 332 336 341 341 342 343 343 341 338 335 337 336 341 337 338 343 344 344 344 344 346 347 348 348 349 348 352 352 351 348 348 352 351 351 350 347 347 346 348 349 348 349 349 350 350 349 348 349 350 350 348 346 349 344 347 344 344 343 343 343 342 341 340 341 341 340 340 340 339 338 341 342 342
305 303 299 300 303 302 304 303 303 305 305 304 304 305 305 307 307 309 306 306 310 313 317 328 329 334 336 338 341 341 341 338 339 338 335 338 336 335 332 334 337 339 341 346 341 347 348 349 349 351 351 350 348 347 347 348 349 348 347 344 344 348 348 349 351 351 349 349 349 350 350 352 350 348 344 345 345 345 345 344 343 343 342 342 341 340 340 340 340 339 339 337 339 339 340 340 340
305 302 299 301 303 301 303 304 305 306 306 305 305 306 305 307 307 307 306 305 310 315 319 321 329 333 335 336 339 341 341 340 338 339 338 337 338 336 333 334 336 340 345 345 340 345 349 349 347 345 350 351 349 346 347 346 349 348 346 343 347 348 348 348 347 348 349 350 351 350 347 347 344 344 346 344 342 343 343 344 344 342 343 343 341 342 339 336 339 336 337 339 339 338 337 339 340
306 303 303 304 304 301 305 305 306 306 306 305 305 304 304 308 308 307 306 303 305 310 315 324 329 336 335 335 338 340 339 338 338 339 337 337 333 329 330 332 337 339 338 336 338 340 341 347 347 348 347 350 351 349 348 347 349 348 346 345 349 347 346 346 347 348 348 350 348 348 345 345 344 342 343 341 342 342 342 340 341 341 340 341 343 341 340 338 340 340 341 339 338 338 338 339 339
299 304 303 305 305 302 305 306 305 306 305 304 304 306 307 305 305 307 306 305 308 313 316 326 333 339 338 339 338 337 338 337 337 337 336 335 334 328 328 329 332 334 334 336 337 340 340 345 347 347 347 348 345 348 350 347 350 347 344 347 349 348 348 347 346 347 348 348 349 348 347 346 343 341 342 343 343 344 343 342 341 341 342 340 343 343 342 342 340 339 339 340 339 338 337 338 339
302 300 304 304 305 304 305 305 306 306 305 305 306 307 304 304 302 307 305 307 315 320 327 331 337 339 338 337 337 337 338 337 338 338 338 338 337 335 331 328 329 332 335 335 337 338 341 343 346 347 346 347 344 346 347 350 347 345 345 345 348 346 346 346 347 348 349 349 351 351 351 348 344 341 343 342 342 345 343 345 344 342 342 342 344 343 340 340 339 341 342 341 339 338 337 338 336
301 300 303 304 305 305 306 306 306 306 306 307 306 304 303 305 305 305 305 314 326 331 334 337 338 338 337 336 336 337 337 338 339 341 342 339 341 336 331 333 330 330 330 334 337 340 342 344 346 346 347 346 347 348 350 347 347 347 344 347 347 344 345 346 349 350 349 349 351 351 350 347 345 344 343 342 343 344 344 344 341 340 342 340 343 342 341 340 340 340 341 341 341 341 341 339 338
302 302 304 304 303 304 305 305 305 305 306 306 304 303 305 306 306 304 311 321 329 335 335 337 336 334 334 335 337 337 337 339 341 340 340 341 340 334 330 330 332 330 330 333 340 341 344 347 344 343 346 346 347 349 348 348 346 345 344 345 347 347 346 347 346 346 351 350 349 347 349 351 346 344 343 342 341 341 341 345 344 342 342 342 344 341 342 342 340 341 341 343 341 341 341 340 339
305 304 303 303 304 304 306 304 304 305 304 305 302 302 304 306 304 302 321 327 334 333 334 335 334 332 333 335 337 338 338 339 337 337 335 338 333 332 333 334 332 333 332 332 336 342 342 344 344 344 348 347 346 345 344 347 348 347 347 345 347 347 346 347 345 347 347 348 348 349 344 347 347 345 344 342 342 339 341 343 342 343 342 343 343 342 344 344 343 341 344 342 342 342 342 342 342
304 303 303 303 303 304 304 304 303 305 303 305 304 302 304 305 304 303 323 329 331 330 332 332 332 332 332 333 336 337 337 334 331 332 330 329 326 331 335 333 333 332 333 331 337 342 340 342 345 344 346 343 340 339 341 342 346 348 346 343 344 343 345 345 344 347 347 347 349 347 349 348 348 347 345 344 343 341 341 341 341 341 340 341 343 343 343 344 343 343 346 346 345 345 343 343 345
302 303 298 300 302 301 303 302 303 304 302 305 305 302 300 302 301 308 320 326 330 329 331 331 331 331 331 332 333 333 328 329 330 332 332 331 330 333 335 336 333 334 336 335 339 342 340 343 344 342 340 340 337 335 339 340 341 341 344 343 341 343 344 344 343 345 346 347 343 350 348 347 346 346 346 345 343 341 342 341 341 340 341 342 343 344 345 345 343 342 344 344 343 344 343 343 342
304 302 300 299 299 299 302 303 303 302 303 304 303 293 298 301 304 312 324 326 326 327 328 331 330 329 329 331 331 329 329 331 332 334 332 332 334 334 337 341 338 336 337 340 340 342 343 344 344 341 338 336 336 337 336 338 338 339 344 342 343 343 343 343 345 345 347 347 348 348 349 347 346 346 345 343 342 341 342 341 340 340 342 342 343 344 342 342 341 341 341 342 340 341 340 342 340
298 301 301 297 297 296 301 302 302 301 303 302 304 295 299 302 305 314 322 326 323 322 327 329 329 329 329 330 331 328 331 333 332 336 338 335 336 338 341 342 342 339 338 340 339 341 343 343 342 338 336 336 337 337 337 337 338 339 340 341 341 340 341 342 345 344 346 345 343 348 348 347 346 346 345 343 342 342 341 342 341 341 344 345 342 343 343 343 341 341 339 340 340 339 340 341 341
301 296 294 298 296 298 300 302 302 300 302 304 302 296 298 303 305 316 321 326 324 322 324 328 329 328 329 329 330 331 331 334 335 338 341 338 339 338 341 342 343 341 338 338 341 343 343 342 340 336 336 337 337 338 338 339 338 340 340 340 342 340 341 341 341 344 341 342 342 343 346 346 346 346 346 346 343 343 343 344 343 343 343 343 343 343 343 342 341 340 340 340 336 336 338 338 339
300 297 298 296 297 297 297 300 302 302 301 303 301 296 300 301 306 315 320 324 323 321 323 327 328 329 329 329 330 331 331 333 334 337 339 339 340 341 342 342 342 342 341 339 340 342 342 341 339 336 336 338 337 337 338 339 338 338 339 339 339 343 342 341 340 343 341 342 341 344 344 345 346 345 346 346 345 343 343 344 344 344 344 343 342 342 341 342 341 339 339 340 340 336 335 337 338
297 298 296 298 296 297 295 299 302 302 301 299 302 298 300 303 306 315 319 322 321 320 322 325 327 328 330 329 329 330 330 331 331 334 338 339 339 341 341 340 340 341 342 343 343 343 340 339 339 339 339 339 337 335 337 337 338 339 339 338 341 342 342 339 341 342 342 343 344 343 345 345 346 345 344 343 345 344 345 345 345 344 342 341 342 342 340 342 341 339 337 338 339 339 336 336 336
296 297 296 296 297 296 296 296 300 301 301 299 300 300 300 302 304 308 317 319 319 319 321 324 326 326 329 329 329 330 330 330 332 334 338 340 340 340 340 340 340 340 342 341 342 343 342 339 338 339 338 339 337 337 337 337 338 336 339 336 340 342 341 342 342 339 339 343 343 343 343 345 343 341 343 345 346 345 345 345 343 342 342 340 341 340 341 341 342 339 337 337 338 338 336 337 338
297 297 297 297 296 296 295 298 301 300 298 298 299 298 300 302 303 308 314 317 319 320 322 323 326 326 327 328 330 330 331 331 333 336 340 340 339 338 338 339 339 339 340 342 341 342 341 338 337 338 339 339 338 335 336 336 338 339 336 338 337 339 341 339 341 341 343 343 343 340 340 342 342 341 343 347 347 345 344 343 343 343 342 343 341 339 339 339 340 340 338 336 335 334 336 336 337
297 297 296 296 296 297 298 298 300 302 298 298 299 300 300 301 303 307 308 315 319 319 321 323 324 326 325 326 328 329 331 333 336 336 339 339 338 337 336 336 337 338 340 341 341 340 339 336 335 334 337 338 336 334 334 336 333 335 336 334 332 334 335 339 339 340 341 342 343 341 339 340 344 346 346 346 346 344 344 344 344 344 343 343 343 341 342 341 342 341 339 337 335 334 333 336 337
297 297 296 296 296 295 298 298 300 302 298 297 300 299 300 301 303 305 308 309 311 316 318 322 322 324 326 326 326 329 331 335 337 336 338 338 336 335 335 336 337 336 338 339 339 340 339 337 335 333 335 338 337 336 335 336 338 336 334 332 333 334 335 335 337 340 341 342 343 344 346 346 346 346 345 345 345 344 343 342 343 343 343 342 342 342 342 340 341 340 339 336 337 333 334 336 336
298 296 297 295 296 298 299 299 300 301 299 297 299 298 299 301 303 305 307 307 308 313 318 320 321 322 324 324 326 328 330 330 334 336 337 336 336 334 333 335 337 338 339 339 340 340 340 339 337 335 336 335 336 336 338 339 340 341 338 336 336 335 338 339 339 341 342 343 346 346 347 347 345 344 343 343 345 343 343 343 342 342 342 341 340 340 341 341 340 340 339 336 334 335 335 338 338
298 297 295 294 297 295 294 299 299 300 299 298 300 298 299 302 304 305 308 308 309 310 315 319 320 321 322 324 325 327 329 330 331 333 333 334 333 333 334 335 337 338 337 338 339 339 338 337 338 336 333 335 336 337 335 337 339 341 337 334 338 338 337 340 341 342 343 343 343 345 344 345 343 343 343 342 342 343 344 342 342 341 341 341 340 339 340 338 340 339 339 338 337 332 332 333 338
299 298 297 296 296 296 295 297 299 301 300 301 298 297 296 300 299 301 307 313 312 311 312 318 323 322 325 327 327 329 328 330 331 332 332 331 331 332 333 335 338 337 336 337 338 338 339 339 339 336 333 334 335 333 334 335 334 333 335 336 337 337 338 338 339 338 341 341 342 343 342 343 342 341 342 341 339 340 341 342 342 342 341 342 340 337 337 338 338 338 338 338 337 334 331 333 335
297 300 299 297 298 296 296 298 296 295 295 300 297 290 292 299 300 300 305 312 310 312 311 310 315 321 324 325 328 329 330 331 331 331 332 331 330 331 332 333 334 335 336 338 339 339 339 339 338 336 334 336 335 333 335 335 333 332 331 330 330 330 330 334 333 334 336 337 338 342 342 342 341 340 339 339 337 338 339 342 343 341 342 341 339 337 337 338 338 337 338 339 337 337 334 331 332
295 297 301 299 297 297 296 296 295 291 289 299 301 291 289 299 299 301 303 306 306 314 314 313 312 314 320 323 326 327 327 328 330 332 332 329 329 329 330 332 333 334 336 338 339 339 339 338 335 335 336 335 333 334 335 334 334 333 334 333 333 332 331 334 336 338 338 338 341 341 340 342 340 340 340 339 339 339 339 340 342 341 340 341 340 339 338 339 338 338 338 338 335 335 335 330 331
294 301 299 298 297 296 296 296 295 294 300 300 299 297 292 292 298 302 303 304 304 310 314 315 314 315 316 323 326 326 326 329 330 332 330 329 329 329 329 333 333 334 336 337 337 337 338 337 336 335 336 335 335 333 334 332 333 334 334 335 334 337 333 335 338 339 341 341 340 339 339 339 339 339 339 338 338 338 338 339 340 340 340 340 339 339 340 339 339 339 339 338 336 335 334 331 329
297 299 298 297 297 298 297 296 295 296 296 292 296 298 292 292 298 302 304 301 304 310 312 313 315 316 319 322 324 325 327 329 330 329 328 328 328 330 331 333 335 335 337 336 336 336 338 337 336 336 335 335 335 334 334 335 335 334 334 338 337 338 338 337 337 338 338 339 338 337 337 336 338 339 337 338 338 337 337 337 337 337 337 335 335 335 340 340 340 340 339 338 337 335 335 333 333
299 300 299 299 299 298 298 296 296 296 293 288 294 297 290 291 297 299 303 302 305 309 311 313 315 316 320 322 324 326 328 328 328 329 327 328 330 330 332 333 333 328 331 335 336 336 336 335 334 334 334 335 336 336 338 336 335 339 334 339 338 338 337 335 335 336 337 336 336 336 336 335 336 337 338 337 337 336 336 336 335 335 336 334 332 332 332 333 334 334 336 338 339 337 337 335 334
301 299 297 298 297 298 298 298 297 295 288 291 295 298 294 288 295 298 299 306 308 310 312 314 315 317 319 322 324 325 326 327 326 326 327 328 330 332 332 331 333 331 334 335 334 334 334 334 334 333 334 335 337 337 337 338 338 335 339 339 338 336 335 334 333 334 334 334 334 334 334 334 334 334 336 337 336 335 337 336 335 334 335 335 332 332 332 331 332 333 334 335 336 337 336 337 335
299 297 296 296 295 298 296 296 297 288 286 293 297 297 296 287 293 305 310 311 310 311 311 312 314 316 317 322 323 325 325 325 326 326 326 327 329 331 332 332 334 335 336 335 333 333 334 333 332 332 332 334 336 336 337 335 335 339 340 341 338 337 335 333 334 333 333 333 333 331 332 333 332 334 334 334 336 336 337 336 336 335 333 334 333 334 333 331 332 332 333 334 334 338 339 338 337
297 297 296 291 288 289 285 290 285 286 286 294 297 296 293 291 301 306 308 310 310 313 313 314 315 315 318 319 322 325 325 325 325 325 326 328 329 331 332 333 334 334 332 333 332 333 333 332 332 330 331 334 334 336 337 337 339 339 340 340 340 338 337 336 335 334 333 332 332 332 331 330 330 330 331 332 335 336 334 334 334 332 332 333 334 332 331 333 333 332 333 333 334 337 338 338 336
296 294 293 290 285 284 281 286 288 288 292 297 296 297 291 295 305 309 308 311 312 313 315 316 316 316 319 320 322 322 323 324 324 325 326 327 330 330 331 331 332 332 332 331 332 332 332 331 332 332 332 335 336 336 336 337 338 339 340 339 338 338 339 338 334 334 334 333 333 332 331 330 329 331 332 332 333 334 333 333 334 334 333 333 332 332 333 334 333 330 331 332 335 338 338 338 336
296 298 296 293 291 287 281 285 282 284 288 294 297 292 289 290 298 308 310 313 314 315 316 318 318 319 320 320 321 321 321 322 323 323 324 326 329 330 330 331 331 331 332 332 332 332 332 331 332 332 333 334 334 334 335 336 338 339 339 340 339 339 338 335 334 335 335 333 331 330 330 330 329 330 329 333 333 334 335 335 335 334 332 331 331 332 332 332 332 329 330 333 333 334 336 337 335
299 299 299 294 291 297 288 290 290 289 288 290 292 290 297 298 308 311 313 312 313 315 316 316 316 318 318 317 318 319 320 321 322 323 324 327 329 330 330 332 330 330 331 332 331 332 333 332 331 332 333 333 335 335 335 334 334 336 337 338 337 337 336 335 334 336 336 333 331 330 331 330 330 330 332 333 335 334 333 333 331 330 330 330 331 330 330 329 330 329 329 331 330 330 333 332 330
297 297 292 295 302 299 292 291 297 289 289 286 294 294 297 307 308 309 310 309 311 312 314 315 315 316 317 317 318 318 319 320 321 322 325 327 328 329 330 330 331 331 330 331 332 333 333 332 331 331 333 334 334 334 336 335 335 333 336 336 336 335 334 334 334 336 335 334 332 331 331 331 333 332 332 333 334 334 333 331 328 329 330 329 329 329 328 328 329 328 328 329 328 329 329 327 328
298 293 296 301 303 301 295 286 289 287 284 286 294 289 294 293 290 307 307 307 308 310 312 313 315 315 315 317 319 320 320 321 322 324 326 326 328 328 329 329 331 331 331 332 333 334 334 333 332 332 333 333 333 334 335 335 334 334 335 336 336 335 333 333 334 333 333 332 333 333 333 331 330 331 332 333 333 333 331 328 327 329 329 329 329 328 325 325 327 326 327 326 327 328 327 327 327
298 296 303 295 289 288 295 290 283 284 283 285 291 292 293 295 295 301 303 304 306 308 312 313 313 315 316 317 317 320 321 321 322 323 324 326 327 328 329 329 330 332 332 333 333 334 334 333 332 332 332 333 333 334 336 336 335 334 335 336 335 334 333 333 334 334 334 332 333 332 331 330 332 331 330 332 332 331 329 328 328 327 327 328 328 329 327 326 325 325 324 324 326 326 324 324 327
301 302 298 302 299 295 291 290 292 291 285 284 286 292 288 299 301 305 303 305 307 308 310 310 312 314 315 315 316 317 319 320 321 322 324 325 326 328 328 329 329 330 332 332 333 333 333 333 334 335 334 333 332 333 334 335 335 334 335 336 335 334 333 332 333 334 334 333 332 331 331 331 331 329 331 331 330 328 328 328 326 326 325 325 325 327 328 326 326 325 325 323 324 324 321 323 324
295 295 295 297 298 301 299 300 293 291 286 287 285 285 292 301 306 305 304 305 308 310 309 311 313 314 315 315 316 318 319 320 321 323 323 324 326 328 329 329 329 330 330 331 331 331 330 332 332 334 334 333 332 333 334 335 334 334 335 335 335 334 334 332 333 334 333 332 332 332 330 330 329 329 331 330 329 327 326 326 326 324 323 323 323 326 328 327 325 325 324 323 322 321 320 322 323
297 296 294 295 295 293 288 287 297 295 290 286 286 284 294 303 307 307 305 306 308 311 310 309 310 311 313 314 316 316 317 319 320 321 322 322 324 324 326 328 329 329 329 331 330 330 329 331 331 333 333 333 332 332 333 334 334 335 335 335 336 335 334 332 333 333 332 331 331 331 331 329 327 329 330 328 327 327 326 326 324 323 322 322 323 325 327 326 324 324 323 322 321 321 321 322 323
Wind_Speed
5 6 2 3 4 4 5 6 7 6 5 8 7 5 2 1 3 3 5 4 6 5 2 3 5 7 7 7 9 8 7 8 6 9 3 2 3 9 8 13 17 17 17 16 16 16 17 15 15 17 17 18 17 18 19 20 19 19 18 18 18 17 17 17 17 17 17 17 17 17 17 17 15 13 12 13 12 11 13 15 16 15 16 18 18 18 18 18 17 16 16 15 14 14 14 14 13
4 3 3 4 5 6 5 3 5 4 6 7 8 3 3 4 4 2 2 1 5 4 6 7 9 10 9 10 8 8 12 6 8 5 4 3 8 9 10 15 18 17 15 16 15 15 16 17 15 17 18 18 18 19 19 19 19 18 19 18 17 17 17 18 18 17 17 16 17 17 18 18 16 15 14 14 12 11 11 13 15 16 17 18 17 18 18 17 16 16 15 15 14 13 13 13 13
4 5 4 5 5 6 1 5 6 4 6 7 2 1 5 5 2 2 3 5 7 8 9 11 11 10 8 8 8 9 4 2 4 6 6 8 10 7 12 16 17 16 17 15 15 14 13 17 15 17 18 18 18 18 18 19 19 19 19 18 17 17 17 18 18 18 18 17 17 18 18 18 17 16 15 13 12 11 13 13 16 16 17 16 17 17 17 16 15 15 15 13 13 13 11 11 11
3 4 4 6 5 5 5 5 7 6 7 4 3 6 2 3 6 5 5 6 8 8 8 9 7 6 6 9 1 1 6 2 4 4 5 8 6 11 13 16 15 14 15 13 14 13 13 17 15 17 18 18 18 19 20 20 19 19 19 18 18 18 18 17 17 18 18 17 17 17 17 16 16 16 13 13 12 13 12 13 14 16 16 16 16 16 16 15 15 14 13 12 12 11 10 9 10
5 5 4 6 5 5 6 4 6 5 8 2 1 5 5 3 6 6 7 7 8 8 8 6 7 4 4 5 4 5 5 2 2 1 5 6 11 13 15 16 14 14 15 15 15 13 15 19 16 17 17 18 19 19 19 19 20 20 20 20 20 19 18 18 17 18 18 17 17 17 18 17 16 16 14 14 13 10 13 13 13 13 12 12 11 12 14 13 13 13 13 12 11 11 10 10 9
5 5 5 5 4 5 4 5 7 8 6 4 5 6 1 3 7 9 8 8 7 7 5 6 7 1 6 2 3 3 5 3 5 3 7 8 14 15 16 14 14 13 15 14 14 13 15 17 16 16 17 18 19 19 20 21 20 20 21 20 19 18 17 18 17 18 18 17 17 18 18 17 17 16 14 14 13 13 11 11 12 11 12 13 14 14 14 12 12 12 11 11 11 9 8 7 6
6 6 5 6 3 4 6 7 7 5 2 2 5 6 7 8 9 10 9 8 1 4 2 5 3 3 7 5 6 6 2 3 6 6 6 11 15 16 16 14 12 15 16 14 13 14 19 16 17 16 17 18 18 20 22 21 20 20 20 19 18 18 17 17 16 16 17 17 17 18 17 17 18 17 14 15 14 13 13 11 10 11 11 12 13 14 13 12 12 11 10 10 8 7 5 5 5
3 6 6 7 4 5 7 7 7 4 3 3 5 6 7 9 9 9 9 8 3 5 3 4 5 7 3 3 3 5 3 2 3 9 11 13 15 16 15 14 12 15 16 14 13 14 18 16 17 17 17 17 21 21 22 21 19 19 19 19 18 17 17 15 15 14 14 15 17 19 19 18 18 18 17 16 16 15 14 12 12 12 12 13 13 13 12 12 12 11 10 8 6 5 4 5 5
7 6 1 6 7 5 7 7 5 1 5 3 1 2 4 6 8 9 9 7 8 6 6 6 6 8 6 5 2 5 5 3 8 11 14 13 15 16 13 12 14 14 15 14 14 16 18 16 16 17 17 19 19 21 21 20 18 18 18 17 16 15 14 15 15 15 15 16 18 17 18 18 18 17 17 16 17 15 14 14 14 13 12 13 13 13 13 12 12 11 9 7 6 5 4 5 6
6 6 6 6 4 7 7 6 6 2 1 3 3 5 4 6 7 8 8 7 6 7 6 4 4 10 4 5 6 5 5 6 10 13 13 14 15 15 16 16 15 17 15 14 15 16 15 17 15 15 16 17 19 20 19 17 17 17 17 16 14 14 15 15 16 17 17 17 16 16 17 16 17 18 17 17 17 16 15 14 13 13 13 14 14 13 12 12 11 10 9 7 6 5 5 7 7
6 6 4 7 7 6 6 4 4 5 2 1 0 4 5 7 7 7 8 7 3 5 3 3 7 10 6 5 4 4 4 8 12 14 13 15 15 15 15 15 16 16 16 16 16 15 16 17 17 15 15 16 17 17 17 17 16 15 15 14 14 13 13 14 15 16 16 16 16 15 17 17 17 17 17 17 16 16 15 14 13 13 14 14 14 13 12 11 11 10 9 8 7 6 6 7 9
5 6 6 7 7 6 2 4 1 1 1 2 7 4 6 8 7 9 9 8 4 3 3 7 1 6 7 5 5 6 7 9 12 13 13 14 13 14 15 13 16 16 17 17 16 15 17 16 16 16 14 14 15 17 17 16 15 15 15 14 13 12 12 13 13 13 14 16 15 15 15 16 17 15 14 15 15 15 15 14 14 14 14 14 14 13 12 11 10 9 9 8 7 7 8 8 9
6 4 7 7 6 5 3 4 1 3 4 5 5 6 6 7 10 10 9 10 1 2 4 6 4 6 5 3 7 7 9 11 12 13 14 13 12 12 13 14 15 16 16 18 17 17 18 17 15 14 15 15 15 16 15 16 15 15 14 13 12 12 12 12 12 12 13 14 14 14 14 15 15 14 15 15 15 15 16 15 14 14 14 14 13 13 12 11 10 8 8 9 8 7 8 9 10
7 4 5 7 3 7 6 4 2 5 3 7 4 6 7 5 10 10 8 9 4 5 4 2 3 2 3 5 6 7 7 11 13 14 13 14 12 12 14 13 15 17 17 17 17 17 16 17 15 15 16 16 15 14 15 15 15 14 13 12 12 12 12 12 12 12 12 12 13 12 13 14 14 14 14 14 14 13 14 15 15 15 14 12 12 11 11 11 9 8 7 8 8 8 7 8 9
6 1 5 7 7 6 3 6 1 3 6 3 6 7 10 4 7 8 10 10 5 5 4 3 2 7 3 7 6 9 11 13 14 14 13 13 14 13 14 14 15 16 16 17 17 17 16 16 16 15 16 15 16 12 12 14 14 14 13 13 13 13 13 13 13 12 12 12 13 13 14 14 14 14 14 14 14 13 14 14 13 15 13 12 12 11 11 9 9 8 7 6 7 8 8 8 8
4 4 5 7 8 7 5 5 2 5 5 2 7 7 9 6 8 8 9 7 5 2 6 5 3 4 2 4 6 11 15 14 14 13 12 14 13 12 13 14 14 15 14 16 15 16 16 17 15 15 15 15 14 13 13 14 14 14 13 13 14 13 14 14 14 13 14 14 15 14 12 13 13 12 14 13 14 14 12 12 14 13 14 13 12 11 10 9 8 8 7 5 6 7 8 7 7
4 5 6 7 9 6 3 4 3 0 6 3 8 9 10 9 9 5 7 3 7 5 2 3 2 1 6 7 9 15 14 12 11 13 12 11 10 9 10 10 11 12 11 14 14 15 17 17 18 15 16 17 15 14 13 13 14 15 14 14 14 14 14 15 15 15 14 14 13 12 10 10 9 9 10 11 14 12 12 12 14 13 14 13 12 11 9 9 8 8 7 7 5 6 7 8 7
6 7 7 9 6 7 5 2 4 6 5 7 9 9 10 10 11 8 12 3 3 1 2 5 2 3 6 10 10 13 12 12 9 7 8 7 7 8 8 8 10 12 13 13 15 16 15 16 18 16 14 16 14 11 9 11 11 13 13 14 13 13 13 14 13 11 12 11 12 11 8 7 8 8 8 11 9 12 12 12 13 13 13 13 12 10 9 8 7 7 6 7 6 6 9 6 6
7 6 8 8 3 7 3 4 3 5 7 8 9 8 9 9 10 9 10 7 7 3 5 3 6 7 8 10 14 13 12 10 8 4 2 5 7 8 9 7 9 11 13 13 11 16 12 12 14 14 14 14 15 12 9 10 12 10 12 12 10 12 12 11 10 10 10 10 10 8 7 7 7 7 8 8 9 11 12 12 12 12 12 12 11 9 8 8 7 6 5 4 5 6 7 5 5
9 7 8 8 3 3 3 2 3 4 7 8 10 9 10 7 7 9 9 11 6 2 2 6 6 9 8 10 12 15 14 14 11 15 13 11 6 2 7 7 7 6 9 9 10 9 10 10 13 11 13 13 12 9 9 8 9 9 9 10 10 9 9 8 8 8 9 9 9 8 7 7 7 7 10 15 14 12 12 11 12 12 11 10 12 9 8 7 8 5 4 3 5 6 6 5 5
6 8 8 2 4 2 4 1 2 6 7 8 10 10 10 7 10 8 9 10 1 5 8 6 8 9 10 10 13 14 14 12 11 9 9 7 4 7 1 6 6 6 2 2 1 3 6 9 10 13 11 13 13 11 11 10 9 9 9 9 9 9 8 7 7 7 8 9 9 7 8 7 7 8 9 9 8 8 8 9 8 7 7 8 10 7 7 7 8 7 6 7 5 4 4 5 4
2 9 9 2 1 6 4 3 5 7 9 9 10 11 9 11 9 8 8 8 5 7 8 4 5 12 12 12 12 12 14 13 12 8 8 7 6 10 3 3 5 5 5 3 4 4 6 4 7 9 11 11 11 10 10 9 10 9 8 9 9 8 8 7 7 7 8 8 7 7 8 8 7 7 7 7 7 7 8 7 7 7 6 6 7 7 6 7 6 7 6 4 3 3 4 3 4
8 8 10 6 6 7 2 6 7 8 9 10 10 9 10 10 10 7 6 8 7 6 4 2 7 11 10 10 12 13 13 12 12 11 9 7 8 9 8 3 1 10 2 5 5 3 2 4 8 10 10 11 12 9 9 9 8 8 9 9 9 8 8 8 7 7 7 8 7 7 7 7 7 7 7 7 7 7 7 6 5 6 6 6 5 4 5 5 3 4 4 4 4 4 5 4 4
10 7 2 8 7 9 7 8 8 9 9 10 10 11 10 11 11 6 9 7 5 4 1 7 9 12 12 13 13 12 12 13 12 11 11 11 13 10 8 12 10 5 8 8 7 5 7 9 9 9 9 9 10 9 10 9 9 9 9 10 8 8 7 7 6 6 7 7 7 6 6 6 6 6 7 6 6 5 5 5 6 5 5 4 4 3 5 4 4 3 4 5 5 5 5 5 4
11 11 8 6 5 7 7 8 8 8 10 10 10 11 10 10 9 10 11 4 2 5 7 10 12 12 12 13 13 11 11 11 11 14 13 12 9 10 4 3 12 15 8 4 6 7 8 8 8 8 10 11 10 11 10 9 9 9 9 9 9 9 5 6 5 5 6 6 7 7 6 6 6 6 6 6 5 5 5 5 5 5 4 4 4 2 2 4 4 4 4 4 3 3 2 2 2
13 11 7 6 6 6 8 9 9 10 7 7 11 11 10 7 7 11 3 4 4 6 9 11 12 12 12 13 12 12 11 11 11 12 12 10 9 10 8 8 8 22 18 4 4 6 8 7 9 11 10 10 9 8 7 8 9 9 9 9 9 8 8 6 6 4 3 5 5 6 6 5 6 6 6 5 5 6 5 5 5 5 4 3 3 3 2 3 4 4 4 4 4 4 4 3 3
2 7 10 10 8 7 6 9 8 7 8 9 12 11 9 4 4 2 6 6 6 8 10 11 11 11 12 12 12 11 12 12 13 10 10 9 10 7 6 4 9 10 27 19 7 7 7 8 9 10 8 7 7 6 7 7 7 7 7 8 8 8 7 6 6 5 5 4 4 6 7 7 5 6 6 6 6 6 5 5 5 5 4 3 2 3 2 1 2 3 3 3 3 2 2 3 3
5 3 5 7 8 8 8 8 9 7 8 8 9 10 8 9 6 7 7 5 5 7 10 10 11 11 10 12 12 11 12 13 11 10 12 13 9 8 10 7 5 1 10 20 14 10 9 9 11 10 7 7 5 7 7 8 6 6 7 7 7 8 8 5 7 6 6 6 6 7 6 6 5 5 6 6 6 7 6 6 5 5 4 4 3 3 3 3 3 3 3 2 2 2 3 2 1
5 5 7 7 7 8 8 7 6 4 9 6 6 10 11 9 11 4 5 5 6 7 9 10 10 11 11 11 10 12 13 12 10 8 9 9 11 11 12 7 7 8 5 18 17 15 15 12 11 11 9 5 9 5 4 4 4 5 5 6 6 6 7 7 7 6 6 6 7 7 7 7 6 6 6 6 7 6 6 7 6 6 5 4 4 4 4 3 3 3 3 3 3 3 3 3 2
4 7 7 5 8 9 5 4 5 8 4 3 3 8 9 12 7 7 6 6 7 9 9 9 9 10 10 11 11 12 11 11 9 7 8 11 11 12 7 4 5 2 6 3 15 16 15 13 11 10 11 11 12 10 7 7 6 5 4 5 5 4 5 6 5 6 6 6 7 8 7 8 7 6 7 7 6 6 6 6 6 6 5 5 4 4 4 3 3 3 4 4 3 3 3 3 3
7 3 4 6 5 4 6 2 1 7 5 5 7 8 5 8 8 6 5 7 8 9 10 9 9 10 10 10 11 12 12 10 10 6 9 11 11 7 5 5 6 7 6 7 8 9 10 12 10 10 11 10 11 10 9 10 9 7 6 5 3 5 4 5 4 5 4 4 3 5 7 7 7 6 7 7 6 6 6 5 5 5 5 4 4 3 2 3 3 4 3 4 4 3 4 4 3
5 5 8 6 6 5 5 3 1 4 6 4 8 7 9 5 9 7 4 6 8 9 11 11 11 10 11 10 11 12 11 10 9 7 7 10 8 7 6 6 7 8 10 8 8 10 10 10 12 13 13 14 10 9 9 10 10 7 6 5 5 6 5 5 5 5 5 6 7 7 7 7 7 6 7 7 6 6 5 5 4 5 5 4 4 4 3 3 3 2 2 2 3 4 4 5 5
6 7 2 4 3 2 4 7 3 1 3 5 8 7 3 6 7 7 5 6 6 8 10 11 12 11 10 10 10 10 11 10 9 8 8 8 5 5 6 7 7 9 9 11 10 12 13 15 14 14 14 12 12 10 10 9 8 7 6 6 6 5 5 4 7 6 6 6 6 6 7 7 7 7 7 7 6 6 5 5 4 5 5 4 4 3 3 3 3 3 3 2 1 3 5 5 5
7 7 6 2 5 3 4 8 5 2 5 4 6 8 8 4 5 7 5 5 6 7 8 9 9 10 11 11 10 11 11 11 11 9 9 7 6 5 5 6 8 8 7 10 11 11 12 13 12 12 11 11 11 12 11 9 7 9 9 6 6 5 6 6 6 6 5 5 5 6 7 8 7 6 7 6 6 5 5 4 5 5 4 4 4 4 3 3 3 3 3 2 2 2 4 5 5
6 5 6 6 7 6 5 2 9 6 3 7 6 8 9 9 5 6 6 5 5 6 7 9 10 10 12 11 11 12 11 12 11 9 10 7 7 6 6 7 7 6 6 8 10 13 12 10 11 13 13 11 13 13 11 8 8 8 7 8 5 5 5 5 5 3 6 6 5 6 7 4 6 5 6 8 6 5 4 5 5 6 4 4 4 4 4 4 3 3 4 3 1 1 3 4 5
1 4 3 3 4 5 5 3 2 3 7 8 8 9 7 8 7 8 6 5 5 5 6 8 10 10 11 11 11 11 11 12 11 10 9 8 6 6 5 6 7 7 7 8 9 10 12 11 11 11 11 11 12 11 11 8 7 5 7 5 6 5 4 5 5 6 5 6 7 7 4 5 5 9 9 7 6 5 4 5 5 5 4 4 4 4 4 4 4 4 4 4 5 4 3 4 5
1 3 4 5 5 5 3 5 4 3 7 10 11 11 10 9 9 6 4 4 6 7 8 9 9 10 11 11 12 12 12 12 11 11 9 8 8 7 6 6 7 7 8 10 11 12 11 10 11 12 10 11 11 10 8 8 8 6 5 5 5 6 5 5 5 5 5 5 6 8 10 8 9 7 6 6 6 5 4 4 5 4 4 3 3 4 4 4 3 4 4 4 6 6 5 5 6
6 6 7 7 7 7 4 3 3 2 6 8 9 9 10 11 10 4 5 4 8 8 9 10 11 11 11 13 13 12 10 8 10 10 10 9 8 9 8 7 7 8 8 9 10 12 12 11 11 10 8 9 10 10 8 8 8 9 7 6 7 7 7 7 7 6 6 6 6 5 5 5 6 6 5 5 5 5 5 5 4 4 3 4 3 3 3 4 4 4 4 5 4 5 5 5 5
7 7 6 7 7 3 2 7 4 3 6 9 10 11 10 11 11 7 5 7 7 8 9 11 11 12 11 11 12 11 10 11 11 12 11 8 8 9 8 7 7 7 8 9 9 10 13 13 12 10 7 8 8 9 8 7 7 7 7 6 7 7 7 6 6 6 6 7 7 6 5 5 5 5 5 6 4 5 5 4 4 3 4 3 4 4 5 4 4 5 5 4 5 4 4 4 5
6 7 8 8 1 1 2 8 6 5 6 7 3 7 8 10 11 11 7 8 7 7 10 11 11 11 11 11 10 11 14 13 14 12 11 10 9 9 9 8 7 7 7 8 9 9 9 9 11 10 9 9 8 8 8 7 6 6 6 6 6 6 6 7 6 6 6 7 7 5 5 4 5 5 6 6 5 5 5 4 4 4 4 4 4 4 4 5 5 5 5 4 4 5 4 5 3
9 10 9 8 6 4 6 3 2 5 9 10 10 9 10 11 12 11 9 8 7 7 9 10 11 11 9 8 9 11 12 13 12 11 10 10 10 10 9 7 7 7 7 7 8 9 8 9 10 12 9 7 7 6 10 9 8 4 5 7 6 6 6 6 6 6 6 6 5 6 5 5 5 5 5 6 5 5 5 4 4 4 4 4 4 4 4 4 5 5 5 4 5 3 4 4 3
8 10 11 10 9 9 11 10 8 7 8 10 9 8 10 11 14 12 8 9 9 8 9 11 11 12 11 10 10 10 11 11 13 12 10 10 9 8 7 7 6 6 6 7 7 8 8 9 9 11 10 11 10 11 10 10 8 9 9 9 9 8 9 8 7 7 7 6 6 5 6 6 6 5 5 5 4 4 5 5 5 5 5 4 4 3 3 4 5 4 5 4 4 3 3 5 5
8 5 8 11 12 11 9 7 6 7 9 7 7 9 5 4 6 9 10 10 11 8 7 8 9 10 12 11 10 10 10 10 11 11 10 9 8 8 8 7 8 7 6 6 6 7 8 10 10 9 8 8 10 10 9 6 9 10 11 10 9 8 8 6 6 6 6 6 6 6 6 6 6 6 5 5 5 5 5 5 5 5 5 5 5 4 4 5 4 4 3 4 4 4 3 4 4
8 4 5 6 8 9 8 8 9 7 4 4 7 7 8 8 7 8 9 10 8 7 7 7 8 9 11 11 10 10 10 10 9 11 11 9 9 9 9 9 9 7 6 7 6 6 8 10 10 9 7 8 10 10 7 6 6 7 10 8 7 7 7 7 7 7 6 6 6 7 6 6 6 5 5 5 5 5 5 5 5 5 4 4 5 4 4 4 3 4 2 3 2 2 3 3 5
2 6 1 5 4 6 8 8 8 6 5 8 9 9 8 9 6 5 6 10 8 3 1 4 6 7 8 11 11 10 10 10 11 11 11 10 10 8 7 7 5 4 6 8 7 7 7 8 7 7 7 8 10 13 11 12 9 9 7 8 8 6 7 7 6 6 7 7 8 7 6 6 6 5 5 5 5 5 5 5 5 5 5 4 4 4 4 4 4 4 5 3 3 3 3 1 1
7 0 2 4 4 4 7 7 7 5 5 8 10 10 9 9 6 7 5 8 4 1 1 0 2 6 8 9 10 10 10 10 8 8 11 10 10 10 9 10 9 8 3 5 8 8 7 7 7 7 7 6 8 9 7 9 10 8 10 7 7 7 7 7 7 7 7 8 8 7 6 6 6 5 5 5 5 5 5 5 5 4 3 3 3 2 3 4 3 3 3 3 3 3 3 4 3
6 3 5 5 6 6 6 7 6 5 8 10 6 9 10 9 6 1 3 3 3 3 2 1 2 4 8 9 10 9 10 10 10 10 11 10 10 11 11 11 12 13 11 10 9 9 9 9 8 8 7 6 6 7 7 7 7 8 6 6 8 8 9 9 8 9 8 8 7 7 6 6 5 5 5 5 4 5 4 4 4 4 3 2 2 3 3 2 3 2 2 3 4 4 3 4 4
6 6 8 6 6 5 7 6 6 7 8 8 7 8 10 9 5 6 6 4 2 4 5 3 2 6 7 9 7 8 9 9 9 9 10 10 11 13 13 14 14 13 12 12 10 10 10 9 9 9 8 6 6 7 8 7 8 6 6 7 8 9 9 9 9 10 9 9 8 8 7 6 6 6 6 6 5 5 4 4 4 4 4 3 2 1 0 1 1 1 2 3 3 4 4 4 4
8 8 7 9 7 5 8 8 8 9 6 5 3 4 7 12 2 4 5 4 2 4 4 4 3 6 8 8 10 10 7 10 10 9 9 11 11 12 12 13 12 11 10 11 11 10 9 10 11 11 10 10 10 11 12 12 10 9 7 9 10 9 10 9 9 9 8 8 8 8 8 7 7 7 6 6 5 5 5 5 5 4 4 4 3 2 1 0 0 1 2 3 4 4 4 4 4
10 10 9 10 9 8 8 9 5 7 7 6 4 2 10 6 7 7 5 4 4 3 3 2 1 4 7 8 8 9 9 8 9 10 11 10 10 11 11 12 11 10 12 11 10 10 10 11 13 14 14 13 12 11 11 11 10 8 7 7 9 9 9 9 8 8 8 8 8 8 8 7 7 7 6 6 6 6 5 5 5 4 4 4 3 2 2 2 1 2 3 4 4 3 3 3 3
11 11 10 9 9 7 7 8 8 7 5 4 5 5 5 13 5 5 4 4 4 3 4 6 4 7 7 8 8 7 7 7 8 9 9 9 10 10 10 10 10 10 12 11 11 11 11 12 12 13 13 12 11 11 9 9 7 7 7 6 7 7 8 8 7 7 8 8 7 8 6 6 6 6 7 6 7 6 6 5 4 4 4 4 4 4 3 2 2 1 4 4 4 3 4 2 3
9 8 8 9 9 6 9 2 6 4 4 5 5 4 2 2 6 6 3 5 6 5 6 6 6 6 8 7 8 8 8 8 8 8 8 9 10 9 8 7 8 10 12 11 11 12 11 12 11 12 13 13 11 10 8 7 7 6 7 7 7 8 7 7 6 6 7 7 8 7 6 6 6 6 6 6 6 6 6 5 4 4 5 5 5 4 4 4 3 3 4 3 3 2 3 4 4
7 7 9 10 4 7 1 2 4 1 2 6 3 7 5 8 5 4 5 5 7 6 6 6 7 7 7 8 8 8 8 8 8 8 8 10 8 8 9 8 8 9 11 12 13 12 12 12 12 12 12 11 9 10 8 9 7 7 7 7 7 8 8 7 7 8 7 6 7 7 7 6 6 6 6 6 6 6 6 5 5 6 6 5 5 4 4 4 4 4 5 5 5 4 4 4 3
4 9 9 3 2 7 5 6 3 5 7 3 4 6 6 8 4 4 4 4 4 7 7 6 8 7 5 6 7 9 8 9 8 8 9 9 8 7 7 8 7 9 10 12 14 12 10 10 11 11 10 10 9 10 9 9 9 9 9 9 9 9 8 8 8 9 8 7 7 7 7 6 6 6 6 5 6 7 6 6 5 6 6 6 5 5 5 5 5 5 5 5 5 5 4 3 2
10 4 2 8 6 8 8 4 6 5 6 5 7 8 7 6 2 2 3 3 4 5 8 8 7 8 7 9 9 6 9 9 8 8 8 7 6 7 6 8 9 10 11 11 12 12 11 10 11 11 12 12 11 10 9 7 8 8 7 8 10 9 8 7 8 9 8 8 8 8 7 7 6 7 7 7 7 8 7 6 6 6 5 5 5 5 5 5 5 6 5 6 5 4 4 4 3
10 5 8 5 4 7 5 6 6 6 5 5 4 5 3 4 7 5 5 5 5 5 6 7 7 8 8 7 7 7 8 8 8 7 6 6 5 5 6 7 9 9 9 8 10 11 11 10 12 11 11 12 12 11 10 9 9 8 7 8 10 9 9 8 8 9 8 7 6 7 7 7 7 6 7 8 8 8 8 7 6 5 5 5 5 6 6 6 5 5 5 5 4 4 5 5 4
10 10 9 6 7 2 6 2 7 5 6 4 4 7 4 4 4 4 4 4 5 5 7 5 6 7 6 6 5 5 6 7 7 6 6 5 4 4 4 5 6 9 7 7 8 8 6 8 10 11 12 12 12 12 12 11 10 9 10 10 10 10 10 9 9 10 9 9 8 7 7 6 6 6 7 8 8 8 8 7 7 6 6 5 6 6 6 6 6 5 4 4 5 5 6 5 5
9 10 10 9 9 9 11 8 6 7 5 5 3 4 6 5 2 4 3 4 5 5 8 7 5 5 5 4 6 6 7 8 7 7 6 5 5 4 4 3 5 5 7 8 8 8 9 11 10 10 10 10 11 12 12 11 11 9 11 10 11 10 10 9 10 10 10 10 9 8 7 6 6 6 8 9 9 8 8 8 7 7 7 7 7 7 7 6 6 6 5 3 5 5 5 5 4
Wind_Direction
237 211 201 244 253 235 207 206 235 168 229 239 255 213 89 88 14 238 238 147 228 104 347 288 314 299 286 310 308 311 321 275 353 287 37 54 174 139 138 135 139 141 141 143 140 144 144 135 133 131 130 128 128 128 126 124 125 125 126 127 128 130 131 131 131 134 137 140 141 141 141 142 140 135 130 131 133 132 133 137 136 135 133 134 132 127 127 128 126 123 122 119 116 112 106 102 99
188 184 216 237 235 207 190 231 273 197 218 258 241 249 78 114 230 226 19 333 11 5 324 304 295 296 266 265 271 279 256 263 347 51 112 110 140 127 137 144 142 142 143 139 141 147 145 142 133 131 130 130 130 129 128 125 126 125 127 128 129 132 133 133 135 136 139 141 143 144 144 143 141 137 137 141 142 136 134 135 136 134 134 136 132 131 130 132 131 127 124 121 117 116 111 103 100
169 200 183 215 207 247 59 216 248 225 246 247 155 121 73 235 243 75 348 322 334 323 306 293 296 267 236 223 247 231 93 20 95 76 80 145 140 151 157 146 142 144 141 138 145 145 145 144 135 132 132 132 131 129 126 126 126 127 130 129 131 133 136 137 136 141 142 143 146 146 144 142 142 143 146 147 140 132 131 137 131 134 137 136 134 134 135 135 132 131 128 127 121 120 118 105 99
209 239 226 192 180 238 208 206 255 265 252 284 307 86 99 93 77 5 347 317 301 301 297 292 293 66 277 226 11 311 271 191 28 103 124 170 146 144 145 143 134 141 143 143 143 144 146 142 138 134 135 134 133 133 134 132 131 132 131 132 134 137 140 139 139 142 144 146 148 146 146 143 144 144 131 121 123 132 137 127 129 139 139 136 136 137 134 133 133 130 127 125 122 120 120 118 110
210 187 255 231 258 199 230 231 265 253 251 262 6 109 109 46 352 333 322 314 293 288 287 284 274 169 320 315 360 292 60 79 126 156 130 133 114 142 142 138 138 142 146 145 143 143 144 142 139 136 137 137 137 139 136 134 136 138 139 140 140 140 141 143 142 142 147 150 148 147 144 144 143 137 121 117 124 129 125 130 132 143 141 136 126 124 132 138 130 127 127 123 123 123 123 120 112
201 194 204 255 260 1 261 225 220 234 268 350 282 84 65 14 331 331 318 306 306 286 279 277 291 171 193 83 21 300 31 249 84 146 144 133 140 148 140 139 137 147 145 139 145 148 146 141 141 138 140 141 142 140 137 139 141 141 141 140 141 140 142 146 146 146 153 153 150 149 147 144 142 135 123 119 118 115 118 125 137 142 139 130 128 136 137 131 126 127 123 124 121 122 121 121 120
166 192 181 219 222 225 250 247 252 244 110 333 298 326 352 346 340 317 311 319 323 279 246 271 252 237 236 130 122 54 2 105 209 144 163 137 141 143 143 139 139 146 142 145 149 146 145 142 141 144 145 145 144 142 142 141 142 140 139 139 140 144 148 149 149 152 156 156 155 148 142 141 141 133 127 121 117 116 114 118 123 132 134 130 136 135 132 130 130 125 123 118 113 118 117 122 128
270 247 174 213 187 213 229 250 263 273 95 324 5 326 342 334 323 318 315 304 332 295 154 256 272 286 65 169 300 82 78 221 79 139 136 142 144 147 140 138 140 145 146 145 147 143 138 145 144 147 150 146 146 145 143 142 141 141 141 141 143 147 149 148 149 153 150 150 148 148 144 142 140 136 129 125 117 119 117 122 129 132 134 136 134 134 129 125 123 119 117 116 115 120 124 124 136
186 250 116 253 234 205 251 246 268 161 292 273 310 23 296 313 316 313 308 312 286 249 259 263 254 234 135 158 81 93 72 115 123 134 136 142 148 147 138 139 147 148 146 148 143 141 151 143 149 151 150 149 147 146 143 141 141 141 140 138 139 141 144 143 141 140 143 146 146 147 146 143 140 133 131 123 122 125 128 133 139 139 138 134 132 130 127 125 120 118 116 113 108 110 119 135 135
186 246 178 244 268 236 238 230 234 103 22 58 326 344 357 345 327 322 319 301 313 295 264 263 263 239 98 160 133 128 90 124 134 141 139 148 152 148 146 148 148 149 149 145 144 148 149 149 150 150 150 149 148 145 141 138 138 138 139 138 138 139 143 140 140 141 142 142 142 146 140 141 135 134 128 126 128 132 135 138 140 143 139 134 130 129 126 124 119 115 107 101 100 107 120 127 131
191 209 294 239 223 249 236 228 195 153 171 83 75 86 4 337 330 320 323 323 318 298 271 222 216 230 221 110 63 83 127 142 145 143 147 150 154 153 149 150 152 152 148 146 148 148 148 153 149 148 149 149 146 139 138 138 137 137 137 137 138 139 138 137 140 140 144 142 141 141 136 138 136 133 130 132 134 136 137 138 137 138 137 134 128 126 126 124 112 99 93 89 90 103 115 124 128
217 208 187 232 240 249 260 307 29 360 239 178 110 23 13 334 330 346 344 322 341 274 248 181 155 197 204 159 130 129 141 153 149 146 149 155 157 154 153 154 154 155 153 151 150 147 151 150 154 149 147 145 140 138 138 138 137 136 136 137 136 133 128 130 133 137 141 140 139 127 131 135 137 133 132 134 136 138 136 136 138 137 133 132 128 126 122 112 105 103 100 97 95 107 118 127 132
257 200 210 248 254 240 320 264 224 344 229 121 71 23 340 340 4 347 341 321 28 297 169 205 16 222 179 170 94 131 157 156 151 150 155 158 152 155 156 156 157 158 158 156 150 148 151 152 152 156 143 139 138 137 138 138 135 134 134 131 130 127 126 127 128 130 135 136 132 132 132 135 136 136 132 135 143 141 138 135 137 135 132 131 126 122 122 114 110 113 108 101 98 96 107 121 135
246 221 252 248 254 264 268 292 270 244 124 107 64 359 346 334 358 349 338 339 44 349 28 342 231 204 131 111 156 165 147 154 151 155 159 155 153 156 159 158 161 164 163 161 152 149 151 153 151 152 148 150 142 142 138 135 134 131 128 124 124 126 129 131 133 136 137 133 132 132 133 136 136 136 134 134 137 142 137 136 136 134 133 129 124 117 113 113 114 109 100 101 99 101 106 116 125
243 228 257 266 267 252 214 250 341 234 100 117 50 352 329 57 341 347 6 335 40 352 43 206 346 221 90 236 149 181 158 156 158 160 157 152 161 158 161 163 165 166 166 164 156 152 152 152 154 151 155 150 149 148 147 137 130 128 124 124 126 129 133 137 132 133 135 134 135 139 139 138 141 138 135 139 139 140 138 134 132 132 134 131 123 114 110 112 113 105 96 90 99 101 105 111 122
259 233 245 253 246 251 143 238 194 259 92 16 34 357 333 357 17 342 2 331 335 59 281 126 235 348 36 284 15 142 149 156 156 158 155 160 163 162 165 165 168 169 169 163 158 156 154 154 154 154 155 151 152 150 146 143 134 129 126 127 127 129 134 136 134 136 143 144 145 140 142 143 145 144 144 143 134 138 138 136 130 130 132 130 124 116 117 121 119 114 106 101 100 102 104 103 114
240 257 236 235 251 230 134 239 200 172 59 46 7 1 338 336 14 360 329 288 316 21 277 68 139 171 39 15 64 112 142 145 148 156 160 162 169 166 166 166 169 169 168 166 163 162 156 156 158 158 157 152 151 148 143 142 140 135 134 128 126 128 131 136 139 145 147 141 144 135 138 149 146 146 155 147 138 138 127 129 131 129 130 131 128 122 126 127 124 123 122 119 109 109 107 113 117
207 216 234 238 249 244 64 317 2 13 306 359 348 354 335 328 351 2 324 212 275 285 251 127 139 109 31 60 92 113 129 136 135 139 158 162 179 163 175 171 174 171 172 170 169 163 159 162 161 157 153 151 149 146 139 141 146 150 148 145 144 138 139 144 151 152 151 139 135 147 149 148 147 151 148 145 142 137 136 133 132 133 135 130 128 130 130 128 124 120 117 117 133 143 154 147 144
213 220 234 246 250 50 20 39 17 332 1 334 332 335 332 329 331 352 324 342 339 281 174 177 140 80 90 96 112 123 131 111 120 139 149 211 201 187 215 183 188 182 179 171 169 161 159 156 157 151 150 149 151 140 145 137 150 148 150 149 145 149 147 159 156 155 147 143 154 157 151 150 158 143 148 145 129 130 133 139 131 129 127 128 132 127 126 122 118 113 115 133 141 183 206 170 159
224 254 234 241 53 54 39 39 31 334 332 324 326 325 322 330 325 334 315 328 299 344 143 157 160 113 111 122 132 139 147 151 155 150 170 182 208 75 327 250 230 205 198 172 164 159 149 151 154 140 150 154 145 134 132 156 145 148 152 149 148 148 153 157 156 154 149 156 155 152 151 152 151 156 133 126 136 140 133 127 125 129 132 132 133 135 130 125 119 120 129 161 190 200 201 172 177
183 233 242 322 67 242 119 127 6 324 321 323 313 315 298 347 326 307 324 310 125 74 49 8 95 146 139 152 154 152 151 148 155 160 154 145 167 66 49 316 334 305 326 41 41 130 136 147 146 151 159 149 147 147 144 156 146 154 152 147 145 150 151 153 153 156 155 156 152 155 153 158 155 149 151 154 156 144 147 148 154 163 165 156 181 156 161 149 173 157 158 198 181 207 221 202 195
247 236 248 310 165 256 116 282 324 315 311 300 303 302 335 325 295 303 308 307 338 14 22 58 125 147 150 155 155 153 154 155 160 147 135 150 116 117 166 256 123 42 43 42 42 77 141 173 152 154 152 155 137 137 146 144 158 155 150 142 147 151 153 155 158 158 154 157 161 157 150 154 151 142 148 151 146 147 153 153 166 160 159 157 189 169 169 171 182 177 180 170 166 210 224 225 213
237 217 238 219 261 278 324 291 298 305 301 303 301 316 324 306 305 306 315 308 328 2 357 138 139 140 144 150 156 166 160 151 152 147 144 153 157 158 175 146 146 128 178 101 128 154 139 194 166 160 159 156 149 140 144 158 157 149 144 145 145 147 148 156 163 159 156 161 161 153 151 147 143 140 144 148 147 155 151 154 148 148 156 164 176 170 160 165 160 149 152 165 178 192 209 198 200
238 253 174 239 250 257 269 279 286 284 295 296 299 307 297 301 293 336 307 330 6 2 168 142 133 133 139 149 166 167 161 155 151 152 166 174 193 156 166 127 99 81 122 133 159 168 170 204 173 160 156 158 142 158 160 157 153 148 146 141 151 139 154 159 157 159 153 159 155 156 151 145 143 142 145 148 149 150 143 142 146 151 151 151 160 159 155 143 134 151 168 166 178 188 187 202 187
225 241 243 253 243 258 270 272 276 287 283 285 290 288 290 289 301 319 303 25 32 113 126 126 129 135 146 155 159 159 161 162 167 179 183 194 180 133 158 186 135 105 76 155 179 160 175 182 170 164 164 168 156 163 162 157 145 148 150 151 146 146 172 155 153 155 158 156 159 151 150 149 144 146 148 148 152 144 141 147 147 143 144 144 151 147 135 139 153 162 162 169 180 165 171 182 178
223 240 244 253 251 256 264 276 277 275 279 278 282 281 281 284 337 276 326 81 102 126 126 130 130 137 148 156 158 157 159 167 174 182 185 186 170 158 188 192 249 130 142 153 190 173 175 167 171 175 172 168 157 154 145 144 150 147 148 155 136 157 158 149 144 158 162 159 158 160 147 152 147 149 145 148 147 143 146 142 143 135 136 134 141 132 136 157 156 166 171 175 159 180 171 155 199
50 230 248 262 273 278 272 270 279 282 273 275 274 282 281 282 283 186 110 102 136 134 130 131 138 147 152 155 162 165 167 172 178 171 153 156 164 179 134 150 293 179 144 139 195 182 174 169 178 173 157 162 152 127 134 141 144 139 144 150 145 148 139 141 154 165 171 178 170 159 159 158 149 150 149 152 146 152 148 146 141 139 138 139 147 131 129 148 171 162 172 173 173 172 139 137 229
247 275 260 250 254 254 257 259 260 260 259 249 258 271 283 269 250 267 96 120 151 142 136 144 145 148 154 155 161 164 169 169 166 157 152 157 179 154 141 131 112 347 124 134 159 184 172 176 174 160 139 135 117 133 151 158 142 138 144 145 149 138 144 148 173 176 182 176 179 172 162 154 153 142 151 153 152 154 156 150 144 148 149 158 163 153 146 167 177 133 129 121 120 139 138 140 91
248 251 252 240 239 247 229 241 256 240 264 255 269 272 252 231 239 130 117 137 167 155 143 152 144 151 156 158 154 158 161 162 166 175 166 161 145 145 145 150 176 223 214 149 168 172 171 166 162 143 120 89 94 89 120 135 122 149 147 146 139 148 162 167 177 188 188 180 183 170 162 157 155 151 159 156 154 154 156 156 156 159 163 158 148 150 150 161 150 153 144 155 165 148 134 124 129
253 226 255 260 229 234 163 229 241 239 243 290 239 248 224 202 180 114 139 162 167 162 152 154 152 157 162 165 158 162 162 172 178 178 159 143 148 154 163 112 114 84 334 264 167 167 161 162 154 137 141 130 144 157 140 127 122 142 135 131 124 159 178 176 173 196 194 193 184 172 166 159 162 161 161 157 158 153 159 161 162 163 156 157 155 164 161 167 164 146 149 171 149 160 139 133 144
233 171 213 253 246 162 121 199 168 243 94 230 220 249 219 157 107 99 128 158 186 170 157 163 161 167 171 172 169 172 173 186 177 167 135 147 153 148 126 112 93 85 78 101 155 143 147 147 123 116 119 140 164 139 134 136 138 149 137 125 163 199 180 193 167 195 203 197 175 183 164 160 163 164 165 156 159 161 164 165 170 162 152 163 169 166 162 160 160 167 170 164 151 151 139 118 109
226 224 216 201 239 130 140 151 260 316 116 190 219 242 248 171 104 106 136 166 185 186 167 164 170 178 180 184 184 181 182 188 185 150 139 148 156 141 134 114 92 96 113 125 139 145 142 130 120 130 146 155 131 139 149 148 151 155 147 163 189 184 181 182 189 199 190 200 195 170 162 161 164 166 161 157 160 170 175 169 168 151 154 170 172 153 198 174 152 165 143 163 168 157 145 138 116
207 240 242 176 207 131 200 154 171 292 266 157 243 275 223 216 116 107 122 167 196 195 178 171 172 184 187 191 192 187 181 193 191 165 150 152 147 128 123 114 103 95 117 134 151 152 148 141 141 151 155 149 139 144 155 158 159 168 163 187 176 174 171 169 198 198 198 189 187 170 164 166 171 166 165 163 171 173 175 167 146 153 170 170 158 167 195 176 158 167 156 162 177 166 134 111 108
199 205 242 242 242 138 222 128 184 194 273 219 184 251 247 300 118 123 134 165 194 200 186 180 181 181 191 196 197 196 193 194 194 177 156 163 145 132 120 113 106 100 109 134 147 150 142 142 149 144 149 153 149 155 153 165 179 176 171 185 166 173 173 184 187 196 194 179 182 172 170 169 172 165 167 183 176 183 163 152 143 159 170 163 159 185 177 170 162 172 160 171 162 193 121 127 129
194 182 221 209 212 241 294 248 110 261 209 255 240 243 257 252 231 144 140 171 198 199 194 188 190 193 187 199 201 204 199 198 197 183 157 157 142 136 131 128 127 124 126 140 153 149 146 146 147 145 156 152 150 151 147 160 194 172 167 163 170 169 188 175 178 184 189 190 172 178 163 158 165 161 209 181 172 175 156 148 159 168 174 173 173 181 165 163 165 165 168 151 139 112 115 125 116
303 233 251 285 246 175 212 194 324 303 280 265 245 248 233 228 226 128 152 162 197 203 203 195 193 199 195 195 198 208 204 198 200 187 154 157 154 142 143 147 150 146 140 145 157 152 150 149 153 153 156 154 145 151 155 164 174 158 157 159 159 176 179 176 188 191 183 188 192 150 167 170 182 176 191 173 175 167 156 158 163 174 179 184 176 176 169 169 166 162 157 157 137 117 121 121 120
21 256 257 249 253 253 166 247 262 280 283 257 254 249 251 253 250 135 133 168 193 216 206 206 202 197 199 202 201 204 205 201 192 197 171 158 151 148 155 168 165 157 154 158 164 164 149 151 152 158 160 153 148 155 157 162 159 160 160 142 185 173 176 188 186 186 189 189 202 164 177 187 176 173 171 172 169 162 160 156 161 174 187 169 182 175 181 161 169 161 152 158 156 146 141 146 135
250 255 254 251 238 256 164 226 244 234 271 266 255 255 250 253 251 203 142 195 226 211 212 212 212 205 201 200 199 199 205 203 188 194 191 180 152 155 169 178 177 171 168 167 171 166 153 147 149 155 155 156 151 158 161 165 170 172 165 160 188 175 180 187 185 181 195 180 190 188 177 168 163 168 173 173 168 170 155 155 162 176 178 181 185 169 162 154 167 163 163 160 169 157 143 159 150
233 250 249 256 253 277 243 250 235 244 233 261 256 255 252 246 247 236 213 232 241 228 219 218 218 214 207 203 199 187 191 205 197 198 190 184 163 163 185 193 185 180 167 173 170 172 162 157 152 146 146 150 146 162 157 173 175 168 163 166 177 181 184 185 184 179 185 180 184 184 181 175 169 170 173 172 173 168 156 155 168 163 189 168 173 169 163 173 173 175 177 169 160 152 141 158 174
234 227 236 242 307 248 196 167 196 196 254 284 307 283 263 257 255 253 240 232 232 232 225 222 222 225 217 208 196 191 190 196 196 191 191 196 190 183 194 197 191 179 169 171 169 170 172 174 161 133 152 159 159 153 152 156 174 146 130 176 181 182 174 170 177 173 179 180 175 182 172 176 173 175 178 179 173 161 160 159 157 166 177 168 184 177 170 178 172 182 181 176 178 157 161 158 180
223 244 253 256 236 223 259 302 202 270 256 251 267 262 254 239 237 233 201 190 199 208 223 228 228 231 233 217 205 198 196 190 197 185 175 181 184 190 194 194 189 179 174 178 172 165 170 171 169 147 145 146 134 132 150 154 158 134 185 159 165 168 159 168 170 174 179 177 173 178 172 170 177 186 181 187 172 161 163 154 156 161 166 173 190 183 179 182 182 191 178 184 190 189 158 156 152
240 222 242 262 276 272 262 252 262 251 243 199 223 247 245 223 220 232 194 177 207 195 206 215 222 226 224 220 208 194 195 201 189 185 180 176 173 174 182 182 181 180 178 176 174 164 163 150 149 150 151 168 140 144 158 154 164 170 164 166 170 174 171 166 174 172 174 172 178 168 163 173 184 180 174 175 163 163 156 161 163 165 160 166 182 188 182 175 194 199 173 195 182 192 180 164 160
248 234 193 238 247 255 256 243 223 236 251 142 204 249 257 157 217 216 211 210 205 172 210 227 224 220 217 217 204 198 193 194 188 175 162 167 167 160 165 173 176 184 178 166 160 159 153 139 144 152 155 149 138 132 149 143 167 175 173 176 173 176 161 167 173 162 167 170 172 169 167 176 174 168 169 160 161 162 166 161 165 169 171 169 175 185 187 191 182 193 176 198 199 180 195 185 176
247 91 242 251 248 235 231 229 224 256 46 133 216 235 272 257 222 219 207 215 219 202 220 226 231 226 219 206 197 196 189 186 178 153 152 161 159 160 163 173 170 177 157 153 148 154 160 148 138 143 141 142 134 126 134 160 190 193 186 173 185 179 160 164 164 166 168 164 159 169 167 163 168 162 159 159 159 166 161 163 162 162 175 172 176 184 187 186 172 173 183 197 194 205 182 219 185
281 88 249 250 244 232 223 216 220 238 267 231 201 214 250 253 236 199 205 227 200 173 261 251 227 223 218 207 194 192 181 178 171 151 144 154 155 155 158 159 161 141 158 151 144 144 138 136 128 122 135 136 132 154 174 175 190 190 188 188 171 164 150 149 155 160 160 165 162 160 165 158 155 157 162 156 166 162 161 160 161 160 162 166 180 173 179 169 168 160 170 181 190 176 206 224 249
223 156 275 277 259 240 224 216 217 203 227 241 222 199 247 254 237 199 191 240 179 113 331 66 220 202 200 186 187 184 172 170 140 134 134 146 149 150 157 147 144 116 219 161 142 142 138 131 130 153 146 136 154 158 178 184 201 180 188 170 162 149 145 147 155 160 164 161 157 156 158 162 159 158 159 166 162 158 156 151 157 150 153 163 212 151 160 162 172 172 176 180 167 193 188 197 197
45 201 226 199 203 196 200 234 231 207 234 238 224 187 240 264 249 335 180 46 5 317 255 85 157 179 180 177 171 171 168 156 132 142 143 149 153 154 152 152 156 160 171 154 146 148 149 148 147 157 146 142 156 159 186 196 196 191 185 162 163 150 153 156 161 165 159 160 154 157 164 165 163 155 157 153 155 150 146 147 149 146 142 152 165 147 183 172 164 190 191 186 184 191 187 183 212
225 227 228 193 189 186 206 201 217 231 234 225 172 213 222 254 207 78 76 71 20 315 315 294 258 171 174 146 149 156 160 157 155 159 159 163 166 161 162 164 166 159 156 150 149 148 150 141 145 143 138 141 164 179 190 185 203 191 188 170 167 161 164 166 168 165 160 157 156 162 158 150 161 155 164 156 157 156 154 145 145 137 140 149 145 119 150 164 193 185 183 194 189 190 176 191 197
221 229 231 226 200 190 209 200 205 220 243 124 170 194 227 243 22 96 70 52 358 353 306 284 208 171 157 156 152 140 128 147 157 164 165 167 176 169 170 165 166 152 149 145 149 147 150 147 149 143 156 171 185 191 189 186 190 188 189 180 172 167 174 173 169 163 162 161 165 165 163 164 161 165 167 163 154 161 160 154 157 155 145 157 148 148 144 35 133 180 155 170 160 173 170 185 190
211 218 215 221 220 203 224 216 219 233 206 123 217 193 252 268 114 56 48 42 17 358 36 160 121 162 136 143 148 146 147 148 157 175 182 178 166 164 171 172 166 160 154 152 150 149 152 157 163 170 176 178 185 187 187 189 185 188 188 181 172 169 174 177 169 164 161 163 163 158 163 158 159 159 158 164 160 167 167 158 158 151 144 138 148 148 136 148 154 165 147 141 146 141 141 169 156
209 219 226 231 241 233 225 231 224 227 254 130 154 208 230 233 108 69 60 45 39 47 54 68 79 103 122 130 128 131 161 180 180 176 171 166 163 162 171 168 160 156 152 154 153 154 159 162 174 175 170 173 182 186 187 188 188 190 184 184 174 175 171 173 164 161 161 154 151 154 153 152 154 155 160 155 160 168 158 155 148 143 140 136 142 148 148 142 157 167 118 113 116 120 128 154 128
201 217 238 245 237 234 252 341 316 279 226 184 160 247 279 18 127 114 95 67 68 51 83 78 78 109 116 124 136 143 155 163 173 179 177 176 168 157 161 164 154 153 158 157 163 166 167 169 170 176 175 178 181 181 180 186 189 187 183 185 183 180 174 169 151 147 147 149 148 152 148 153 153 157 159 157 163 164 155 148 149 141 138 140 144 147 160 140 127 125 116 120 121 124 128 130 131
165 203 216 224 260 252 223 163 94 120 264 256 171 230 184 117 138 121 97 70 79 89 94 112 113 112 129 138 141 142 147 152 155 165 165 169 161 165 159 159 162 155 164 164 169 171 168 163 169 180 183 177 170 181 178 181 182 181 179 184 185 180 175 166 153 146 140 145 153 154 155 157 149 161 156 161 162 160 154 153 146 137 140 140 137 139 133 122 127 118 115 121 118 122 117 109 107
159 218 214 159 226 288 251 244 170 234 243 216 211 244 216 199 189 175 120 77 57 90 96 122 131 134 132 134 137 143 146 140 145 150 143 149 160 161 171 177 164 158 166 171 173 174 158 163 167 178 182 178 179 180 184 180 177 182 176 182 182 179 178 168 156 154 152 158 161 161 155 153 165 162 161 161 163 156 152 154 146 148 148 150 150 145 134 125 128 115 112 114 106 113 115 115 121
238 266 11 212 179 211 209 247 230 231 225 245 220 229 249 223 151 191 161 112 78 76 101 111 115 123 124 110 91 102 128 135 140 141 138 146 154 162 172 168 171 169 171 178 176 168 162 159 167 176 181 179 176 179 184 189 185 179 178 179 183 178 179 170 160 158 160 168 170 168 165 163 167 169 166 162 165 160 158 156 152 153 154 155 157 147 141 139 131 122 121 116 122 130 113 113 107
235 266 245 237 276 238 203 216 251 246 248 221 216 200 238 21 112 161 130 127 110 104 115 102 92 79 97 102 112 116 123 132 143 141 142 130 140 139 147 154 166 162 180 180 179 168 158 167 171 175 174 175 175 181 182 190 185 179 175 177 183 181 180 173 165 165 165 168 166 176 168 167 167 168 162 164 166 162 162 158 156 152 154 155 157 159 157 141 145 137 144 134 126 144 132 128 127
194 217 228 197 231 344 304 188 233 234 242 239 230 235 121 52 68 89 110 118 115 123 111 90 91 97 95 99 119 130 142 153 143 119 105 97 106 100 131 164 155 160 182 188 170 151 161 181 181 173 171 173 177 186 186 187 181 180 176 176 182 186 184 175 170 170 171 174 177 184 173 169 162 168 162 168 168 166 165 162 156 159 155 154 153 161 159 155 150 146 136 131 148 149 139 123 122
225 215 224 213 212 206 213 229 198 246 251 257 250 241 95 90 353 79 115 133 149 124 116 95 78 67 81 70 52 37 52 47 62 65 76 90 80 86 71 119 167 170 182 186 159 159 184 194 184 178 178 178 178 188 188 186 187 181 180 177 175 181 182 173 168 169 172 170 172 177 168 167 171 169 174 172 174 171 168 168 162 159 156 151 155 154 163 161 151 142 138 149 149 151 126 119 122